EN

Hourly Weather Troy

Today, 13 April, Tuesday

Time Temperature Precipitation Wind Pressure Humidity
00:00 +7°C° 0 mm 1 mps 759 mmHg 88%
01:00 +5°C° 0 mm 0 mps 760 mmHg 89%
02:00 +5°C° 0 mm 0 mps 760 mmHg 90%
03:00 +5°C° 0 mm 1 mps 760 mmHg 90%
04:00 +5°C° 0 mm 1 mps 760 mmHg 91%
05:00 +6°C° 0 mm 1 mps 761 mmHg 88%
06:00 +6°C° 0 mm 1 mps 761 mmHg 86%
07:00 +7°C° 0 mm 1 mps 762 mmHg 83%
08:00 +9°C° 0 mm 1 mps 761 mmHg 78%
09:00 +10°C° 0 mm 1 mps 761 mmHg 73%
10:00 +11°C° 0 mm 1 mps 761 mmHg 68%
11:00 +13°C° 0 mm 1 mps 761 mmHg 63%
12:00 +14°C° 0 mm 1 mps 761 mmHg 58%
13:00 +16°C° 0 mm 1 mps 761 mmHg 53%
14:00 +16°C° 0 mm 1 mps 761 mmHg 53%
15:00 +16°C° 0 mm 1 mps 760 mmHg 53%
16:00 +16°C° 0 mm 1 mps 760 mmHg 53%
17:00 +15°C° 0 mm 1 mps 760 mmHg 58%
18:00 +14°C° 0 mm 1 mps 761 mmHg 63%
19:00 +13°C° 0 mm 1 mps 761 mmHg 68%
20:00 +12°C° 0 mm 1 mps 761 mmHg 71%
21:00 +12°C° 0 mm 1 mps 761 mmHg 73%
22:00 +11°C° 0 mm 1 mps 761 mmHg 75%
23:00 +11°C° 0 mm 1 mps 761 mmHg 77%

Tomorrow, 14 April, Wednesday

Time Temperature Precipitation Wind Pressure Humidity
00:00 +10°C° 0 mm 1 mps 761 mmHg 79%
01:00 +10°C° 0 mm 1 mps 761 mmHg 82%
02:00 +9°C° 0 mm 1 mps 761 mmHg 83%
03:00 +9°C° 0 mm 1 mps 761 mmHg 84%
04:00 +9°C° 0 mm 1 mps 760 mmHg 85%
05:00 +10°C° 0 mm 1 mps 761 mmHg 82%
06:00 +10°C° 0 mm 1 mps 761 mmHg 79%
07:00 +10°C° 0 mm 0 mps 761 mmHg 76%
08:00 +13°C° 0 mm 1 mps 761 mmHg 68%
09:00 +16°C° 0 mm 1 mps 760 mmHg 59%
10:00 +19°C° 0 mm 1 mps 760 mmHg 51%
11:00 +20°C° 0 mm 1 mps 759 mmHg 47%
12:00 +21°C° 0 mm 1 mps 758 mmHg 43%
13:00 +22°C° 0 mm 1 mps 758 mmHg 39%
14:00 +21°C° 0 mm 1 mps 757 mmHg 43%
15:00 +20°C° 0 mm 1 mps 757 mmHg 46%
16:00 +20°C° 0 mm 1 mps 756 mmHg 49%
17:00 +18°C° 0 mm 1 mps 756 mmHg 55%
18:00 +16°C° 0 mm 1 mps 756 mmHg 61%
19:00 +14°C° 0 mm 1 mps 756 mmHg 66%
20:00 +14°C° 0 mm 1 mps 756 mmHg 70%
21:00 +13°C° 0 mm 1 mps 756 mmHg 73%
22:00 +12°C° 0 mm 1 mps 756 mmHg 76%
23:00 +12°C° 0.1 mm 1 mps 756 mmHg 79%

Day after tomorrow, 15 April, Thursday

Time Temperature Precipitation Wind Pressure Humidity
00:00 +12°C° 0.1 mm 1 mps 756 mmHg 82%
01:00 +12°C° 0.1 mm 2 mps 756 mmHg 85%
02:00 +10°C° 0.9 mm 2 mps 755 mmHg 87%
03:00 +10°C° 0.9 mm 2 mps 755 mmHg 90%
04:00 +9°C° 0.9 mm 2 mps 755 mmHg 92%
05:00 +9°C° 1 mm 3 mps 754 mmHg 91%
06:00 +9°C° 1 mm 3 mps 754 mmHg 91%
07:00 +8°C° 1 mm 4 mps 754 mmHg 90%
08:00 +7°C° 0.5 mm 4 mps 754 mmHg 89%
09:00 +7°C° 0.5 mm 5 mps 754 mmHg 88%
10:00 +7°C° 0.5 mm 5 mps 754 mmHg 86%
11:00 +7°C° 1 mm 5 mps 754 mmHg 87%
12:00 +6°C° 1 mm 5 mps 754 mmHg 87%
13:00 +6°C° 1 mm 5 mps 754 mmHg 88%
14:00 +6°C° 0.9 mm 5 mps 754 mmHg 88%
15:00 +6°C° 0.9 mm 4 mps 754 mmHg 89%
16:00 +6°C° 0.9 mm 4 mps 754 mmHg 89%
17:00 +7°C° 2.1 mm 3 mps 754 mmHg 91%
18:00 +7°C° 2.1 mm 2 mps 754 mmHg 92%
19:00 +8°C° 2.1 mm 1 mps 754 mmHg 94%
20:00 +7°C° 2.1 mm 1 mps 754 mmHg 95%
21:00 +7°C° 2.1 mm 1 mps 754 mmHg 95%
22:00 +6°C° 2.1 mm 1 mps 754 mmHg 96%
23:00 +6°C° 2.1 mm 1 mps 754 mmHg 96%

16 April, Friday

Time Temperature Precipitation Wind Pressure Humidity
00:00 +5°C° 2.1 mm 1 mps 754 mmHg 97%
01:00 +5°C° 2.1 mm 1 mps 754 mmHg 97%
02:00 +5°C° 1.5 mm 1 mps 754 mmHg 98%
03:00 +3°C° 1.5 mm 2 mps 754 mmHg 98%
04:00 +3°C° 1.5 mm 2 mps 754 mmHg 98%
05:00 +3°C° 1.1 mm 2 mps 754 mmHg 98%
06:00 +3°C° 1.1 mm 2 mps 754 mmHg 98%
07:00 +3°C° 1.1 mm 2 mps 754 mmHg 98%
08:00 +4°C° 0.6 mm 2 mps 754 mmHg 96%
09:00 +4°C° 0.6 mm 2 mps 754 mmHg 95%
10:00 +4°C° 0.6 mm 3 mps 755 mmHg 93%
11:00 +4°C° 0.6 mm 3 mps 755 mmHg 93%
12:00 +4°C° 0.6 mm 3 mps 755 mmHg 93%
13:00 +4°C° 0.6 mm 3 mps 755 mmHg 93%
14:00 +4°C° 1 mm 3 mps 755 mmHg 94%
15:00 +4°C° 1 mm 3 mps 756 mmHg 95%
16:00 +4°C° 1 mm 3 mps 756 mmHg 96%
17:00 +4°C° 0.7 mm 3 mps 756 mmHg 95%
18:00 +4°C° 0.7 mm 3 mps 757 mmHg 94%
19:00 +3°C° 0.7 mm 3 mps 757 mmHg 93%
20:00 +3°C° 0 mm 3 mps 757 mmHg 94%
21:00 +3°C° 0 mm 3 mps 757 mmHg 95%
22:00 +4°C° 0 mm 2 mps 757 mmHg 95%
23:00 +4°C° 0 mm 2 mps 757 mmHg 95%

17 April, Saturday

Time Temperature Precipitation Wind Pressure Humidity
00:00 +4°C° 0 mm 2 mps 758 mmHg 96%
01:00 +4°C° 0 mm 2 mps 758 mmHg 96%
02:00 +4°C° 0 mm 2 mps 758 mmHg 96%
03:00 +3°C° 0 mm 2 mps 758 mmHg 96%
04:00 +4°C° 0 mm 1 mps 758 mmHg 96%
05:00 +5°C° 0 mm 1 mps 759 mmHg 94%
06:00 +5°C° 0 mm 1 mps 759 mmHg 92%
07:00 +6°C° 0 mm 1 mps 759 mmHg 90%
08:00 +6°C° 0 mm 2 mps 759 mmHg 86%
09:00 +7°C° 0 mm 2 mps 759 mmHg 81%
10:00 +8°C° 0 mm 2 mps 759 mmHg 77%
11:00 +9°C° 0.1 mm 2 mps 759 mmHg 74%
12:00 +10°C° 0.1 mm 3 mps 759 mmHg 71%
13:00 +10°C° 0.1 mm 3 mps 759 mmHg 68%
14:00 +12°C° 0 mm 2 mps 759 mmHg 66%
15:00 +12°C° 0 mm 2 mps 759 mmHg 65%
16:00 +12°C° 0 mm 2 mps 759 mmHg 63%
17:00 +11°C° 0 mm 1 mps 759 mmHg 68%
18:00 +9°C° 0 mm 1 mps 760 mmHg 74%
19:00 +7°C° 0 mm 0 mps 760 mmHg 80%
20:00 +7°C° 0 mm 1 mps 760 mmHg 81%
21:00 +7°C° 0 mm 1 mps 760 mmHg 83%
22:00 +7°C° 0 mm 1 mps 761 mmHg 85%
23:00 +6°C° 0 mm 1 mps 761 mmHg 85%

18 April, Sunday

Time Temperature Precipitation Wind Pressure Humidity
00:00 +6°C° 0 mm 1 mps 761 mmHg 86%
01:00 +6°C° 0 mm 1 mps 761 mmHg 86%
02:00 +6°C° 0 mm 1 mps 761 mmHg 88%
03:00 +5°C° 0 mm 1 mps 761 mmHg 89%
04:00 +5°C° 0 mm 1 mps 760 mmHg 91%
05:00 +6°C° 0 mm 1 mps 761 mmHg 87%
06:00 +7°C° 0 mm 1 mps 761 mmHg 84%
07:00 +7°C° 0 mm 1 mps 761 mmHg 81%
08:00 +9°C° 0 mm 1 mps 760 mmHg 75%
09:00 +11°C° 0 mm 1 mps 760 mmHg 68%
10:00 +13°C° 0 mm 1 mps 760 mmHg 62%
11:00 +14°C° 0 mm 1 mps 760 mmHg 56%
12:00 +15°C° 0 mm 1 mps 759 mmHg 51%
13:00 +16°C° 0 mm 1 mps 759 mmHg 46%
14:00 +15°C° 0 mm 1 mps 759 mmHg 49%
15:00 +15°C° 0 mm 1 mps 758 mmHg 52%
16:00 +15°C° 0 mm 1 mps 758 mmHg 55%
17:00 +13°C° 0 mm 1 mps 758 mmHg 60%
18:00 +12°C° 0 mm 1 mps 758 mmHg 66%
19:00 +11°C° 0 mm 1 mps 758 mmHg 71%
20:00 +10°C° 0 mm 1 mps 759 mmHg 74%
21:00 +10°C° 0 mm 1 mps 759 mmHg 77%
22:00 +9°C° 0 mm 1 mps 759 mmHg 80%
23:00 +9°C° 0 mm 1 mps 759 mmHg 82%
Show more

We Need Your Consent

Meteoprog and our Service Providers may store and access personal data such as cookies, device identifiers or other similar technologies on your device and process such data to personalise content and ads, as well as provide social media features and to analyse the traffic.

  • Store and/or access information on your device

    Cookies, device identifiers or other information can be stored or accessed on your device for the purposes indicated above.

  • Personalised ads and content, ad and content measurement, audience insights, and products development

    Ads and content can be personalised based on a profile. More data can be added to better personalise ads and content. Ad and content performance can be measured. Insights about the audience who saw the ads and content can be derived. Such data can be used to develop or improve user’s experience, systems and software.

By clicking ‘I Agree’ you will allow the use of indicated cookies, device identifiers, web beacons or other similar technologies. Your settings can be changed in the browser on your device.

For certain purposes, legitimate interests may be relied on, rather than consent. You can read more about this in our Privacy and Cookie Policy.